Location: Home
(42.5358°N, 72.7383°W)
Time: 11:32:53
(UTC-05:00)

Tiros 1 - Pass Details

Date: 08 December 2021
Orbit: 629 x 664 km, 48.4° (Epoch: 26 January)

Event Time Altitude Azimuth Distance (km) Brightness Sun altitude
Rises 20:22:23 0° 292° (WNW) 2,933 11.3 -44.2°
Enters shadow 20:23:38 - 294° (WNW) 2,461 10.8 -44.4°
Reaches altitude 10° 20:24:47 10° 298° (WNW) 2,028 - -44.6°
Maximum altitude 20:29:18 47° 13° (NNE) 857 - -45.4°
Drops below altitude 10° 20:33:51 10° 87° (E) 2,047 - -46.3°
Sets 20:36:17 0° 93° (E) 2,962 - -46.7°
